Regional Weather Roundup
Issued by NWS

Home | Current Version | Previous Version | Graphics & Text | Print | Product List | Glossary On
Versions: 1 2 3 4 5 6 7 8 9 10 11 12 13 14 15 16 17 18 19 20 21 22 23 24 25 26 27
000
ASUS45 KBOU 100607
RWRCO

WEATHER ROUNDUP FOR COLORADO
NATIONAL WEATHER SERVICE DENVER/BOULDER CO
1100 PM MST FRI DEC 09 2016

NOTE: "FAIR" INDICATES FEW OR NO CLOUDS BELOW 12000 FEET WITH NO
SIGNIFICANT WEATHER AND/OR OBSTRUCTIONS TO VISIBILITY.

COZ001>005-013-030-031-100700-
...NORTHWEST COLORADO...

CITY           SKY/WX    TMP DP  RH WIND       PRES   REMARKS
CRAIG          CLOUDY    29  24  82 SE3       30.13F
HAYDEN         CLOUDY    27  21  80 E5        30.14S WCI  21
MEEKER         FAIR      37  23  56 W7        30.16S
MOUNT WERNER   NOT AVBL
STEAMBOAT SPGS CLOUDY    25  24  95 CALM      30.15R
WALDEN           N/A     34  23  64 SE9G20    30.12F WCI  26
$$

COZ006>008-011-100700-
...WEST CENTRAL VALLEYS...

CITY           SKY/WX    TMP DP  RH WIND       PRES   REMARKS
GRAND JUNCTION FAIR      23  18  81 CALM      30.25R
MONTROSE       FAIR      24  20  84 SE8       30.25S WCI  15
EAGLE          FAIR      24  23  96 CALM      30.22S
RIFLE          FAIR      25  20  81 S3        30.25R
DELTA          NOT AVBL
NUCLA          FAIR      34  25  69 E12       30.27F WCI  25
$$

COZ017>023-064>068-100700-
...SOUTHWEST COLORADO...

CITY           SKY/WX    TMP DP  RH WIND       PRES   REMARKS
DURANGO        FAIR      23  17  78 NE5       30.29R WCI  17
CORTEZ         FAIR      24  22  91 NE5       30.27S WCI  18
PAGOSA SPRINGS FAIR      23  20  91 CALM      30.30S
TELLURIDE      FAIR      32  20  60 SE3       30.31S
WOLF CREEK PAS FAIR      19  18  93 SW13      30.35F WCI   7
$$

COZ009-010-012-014-032>034-037-058>063-100700-
...CENTRAL COLORADO...

CITY           SKY/WX    TMP DP  RH WIND       PRES   REMARKS
ASPEN          CLOUDY    28  25  88 S7        30.20R WCI  21
BUENA VISTA    FAIR      39  18  42 W12       30.16S
COPPER MTN     MOCLDY    27  16  63 W20       30.23R HAZE    WCI  13
BERTHOUD PASS  CLOUDY    18   5  57 NW32G43   30.15R HAZE    WCI  -3
COTTONWOOD PAS FAIR      36  18  48 W26G48    30.14F
GUNNISON       FAIR      13  11  92 CALM      30.28S
KREMMLING      CLOUDY    41  27  56 SW12G17   30.16S
LEADVILLE      CLOUDY    28  17  63 NE12      30.19S WCI  18
MONARCH PASS     N/A     19  18  93 W36       30.35R WCI  -1
SALIDA         FAIR      44  17  34 W15G26    30.21S
SUNLIGHT       FAIR      21  19  93 SW14G24   30.27R WCI   8
WILKERSON PASS MOCLDY    23  14  68 SW13G24   30.17R WCI  11
$$

COZ069>075-100700-
...SAN LUIS VALLEY/SANGRE DE CRISTO MOUNTAINS...

CITY           SKY/WX    TMP DP  RH WIND       PRES   REMARKS
ALAMOSA        FAIR      11   8  88 S3        30.24S
LA VETA PASS   FAIR      23  18  80 NE17G31   30.21F WCI   9
SAGUACHE       FAIR      18  14  86 NW5       30.25S WCI  11
$$

COZ035-036-038>040-100700-
...NORTHERN COLORADO FRONT RANGE...

CITY           SKY/WX    TMP DP  RH WIND       PRES   REMARKS
DENVER INTL AP MOCLDY    24  19  81 VRB7      30.08F WCI  16
DMNS CITY PARK   N/A     26  20  78 NW1       30.10F
AURORA         MOCLDY    24  22  92 W5        30.09S WCI  18
FRONT RANGE AP FAIR      27  23  86 W7        30.10R WCI  19
ERIE MUNI ARPT CLOUDY    22  19  88 CALM      30.11F
BOULDER MUN AP CLOUDY    27  21  80 CALM      30.10F
CENTENNIAL     FAIR      25  21  85 N3        30.08F
BROOMFIELD     FAIR      27  21  80 N3        30.09F
FORT COLLINS   FAIR      21  18  86 SW3       30.11F
LONGMONT       MOCLDY    25  20  81 CALM      30.13F
$$

COZ041-046-047-076>085-087-088-100700-
...PIKES PEAK/PALMER DIVIDE AND SOUTHERN FOOTHILLS...

CITY           SKY/WX    TMP DP  RH WIND       PRES   REMARKS
COLO. SPRINGS  FAIR      25  17  72 N3        30.11F
A. F. ACADEMY  FAIR      23  18  81 CALM      30.10F
SCHRIEVER AFB  NOT AVBL
ELLICOTT       LGT RAIN N/A N/A N/A E6        30.10S
FALCON         FAIR      24  15  69 CALM      30.11F
FORT CARSON    FAIR      28  14  54 W3        30.10F
LIMON          FAIR      15  13  91 N5        30.12R WCI   8
MONUMENT HILL  FAIR      32  19  59 SW10      30.09F WCI  24
TRINIDAD       FAIR      38  18  44 NW6       30.11F
$$

COZ042>045-048>051-090-091-100700-
...NORTHEAST COLORADO...

CITY           SKY/WX    TMP DP  RH WIND       PRES   REMARKS
GREELEY ARPT   FAIR      21  17  84 NW3       30.12F
AKRON          CLOUDY    20  15  81 SE7       30.12F WCI  11
BURLINGTON     FAIR      24  18  77 S12       30.16R WCI  13
WRAY           NOT AVBL
STERLING       CLOUDY    21  18  86 NE5       30.15F WCI  15
HOLYOKE        FAIR      25  19  80 SE6       30.17F WCI  18
FORT MORGAN    MOCLDY    21  16  81 NE8       30.12F WCI  12
$$

COZ086-089-092>099-100700-
...SOUTHEAST COLORADO...

CITY           SKY/WX    TMP DP  RH WIND       PRES   REMARKS
PUEBLO         FAIR      20  11  68 NW6       30.13S WCI  12
LA JUNTA       FAIR      21  11  65 NW8       30.13S WCI  11
LAMAR          FAIR      26  20  77 E9        30.13F WCI  17
SPRINGFIELD      N/A     23  19  85 SW6       30.14S WCI  16
$$




USA.gov is the U.S. government's official web portal to all federal, state and local government web resources and services.